Location: Bonny Doon Airfield
(37.0704°N, 122.1252°W)
Time: 19:37:55
(UTC-07:00)

N. Korean satellite - Pass Details

Date: 16 October 2017
Orbit: 459 x 517 km, 97.2° (Epoch: 22 October)

Event Time Altitude Azimuth Distance (km) Brightness Sun altitude
Rises 20:18:26 0° 212° (SSW) 2,540 10.6 -22.4°
Reaches altitude 10° 20:21:47 10° 246° (WSW) 1,651 10.1 -23.1°
Maximum altitude 20:23:02 12° 267° (W) 1,556 10.2 -23.3°
Drops below altitude 10° 20:24:17 10° 288° (WNW) 1,645 10.3 -23.6°
Sets 20:27:36 0° 323° (NW) 2,515 10.8 -24.2°
